EW5345 Cavalaire Sur Mer FR current weather conditions

sailwx.info

Wind from 267

Air temperature 6.7° C
Dewpoint 5.8° C

Last reported at 2019-Dec-13 02:00 UTC.
Time now 2019-Dec-13 02:50 UTC

Location: N 43°10' E 006°32'.
View on Google Maps.

See reports from other nearby stations

  
Tides and Currents Weather Stations Pressure Air Temp Water Temp Dewpoint Dewpoint Depression Visibility Wind Speed Wind Dir Waves Ship Positions
date/time (UTC)wind fromknots sea level pressurealtimeterstation pressurevisibilityair tempwater tempwave heightnotes
2019-Dec-13 02:00 267 6.7
2019-Dec-13 01:45 267 6.1
2019-Dec-13 01:30 267 6.1
2019-Dec-13 01:15 267 6.7
2019-Dec-13 01:00 267 6.7
2019-Dec-13 00:45 267 7.2
2019-Dec-13 00:32 267 7.2
2019-Dec-13 00:16 267 7.2
2019-Dec-13 00:03 267 7.2
2019-Dec-12 23:46 267 7.2
2019-Dec-12 23:31 267 7.2
2019-Dec-12 23:17 267 7.2
2019-Dec-12 23:01 267 7.2
2019-Dec-12 22:47 267 7.2
2019-Dec-12 22:31 267 7.2
2019-Dec-12 22:18 267 7.2
2019-Dec-12 22:01 267 7.2
2019-Dec-12 21:46 267 7.2
2019-Dec-12 21:32 267 7.8
2019-Dec-12 21:16 267 7.8
2019-Dec-12 21:00 267 7.2
2019-Dec-12 20:45 267 7.2
2019-Dec-12 20:30 267 7.2
2019-Dec-12 20:15 267 7.2
2019-Dec-12 20:00 267 7.2
2019-Dec-12 19:45 267 7.2
2019-Dec-12 19:30 270 7.2
2019-Dec-12 19:15 306 7.2
2019-Dec-12 19:01 308 0 gusting 1 7.8
2019-Dec-12 18:45 309 0 gusting 3 8.9
2019-Dec-12 18:30 319 2 gusting 7 9.4
2019-Dec-12 18:15 320 5 gusting 10 9.4
2019-Dec-12 18:00 332 3 gusting 7 9.4
2019-Dec-12 17:45 321 2 gusting 6 9.4
2019-Dec-12 17:34 252 0 gusting 7 10.0
2019-Dec-12 17:18 283 0 gusting 6 10.0
2019-Dec-12 17:03 311 3 gusting 12 10.6
2019-Dec-12 16:48 304 7 gusting 17 10.6
2019-Dec-12 16:32 334 12 gusting 20 10.6
2019-Dec-12 16:18 333 9 gusting 19 10.0
2019-Dec-12 16:03 287 7 gusting 19 10.0
2019-Dec-12 15:47 313 10 gusting 18 10.6
2019-Dec-12 15:32 341 11 gusting 22 10.0
2019-Dec-12 15:16 323 6 gusting 18 10.0
2019-Dec-12 15:02 314 8 gusting 19 10.6
2019-Dec-12 14:48 317 6 gusting 12 10.6
2019-Dec-12 14:32 321 6 gusting 19 10.6
2019-Dec-12 14:17 318 6 gusting 18 10.6
2019-Dec-12 14:02 301 6 gusting 15 10.6
2019-Dec-12 13:46 284 6 gusting 15 10.6
2019-Dec-12 13:31 306 8 gusting 18 10.6
2019-Dec-12 13:15 311 6 gusting 19 11.1
2019-Dec-12 13:02 310 8 gusting 17 10.6
2019-Dec-12 12:46 316 6 gusting 18 10.6
2019-Dec-12 12:31 281 6 gusting 14 10.6
2019-Dec-12 12:15 296 8 gusting 18 11.1
2019-Dec-12 12:01 347 5 gusting 19 10.6
2019-Dec-12 11:46 259 6 gusting 16 10.6
2019-Dec-12 11:31 278 3 gusting 12 10.0
2019-Dec-12 11:16 317 5 gusting 13 10.0
2019-Dec-12 11:01 303 1 gusting 11 10.0
2019-Dec-12 10:46 301 6 gusting 13 10.0
2019-Dec-12 10:31 333 6 gusting 11 10.0
2019-Dec-12 10:16 322 4 gusting 13 10.0
2019-Dec-12 10:00 284 5 gusting 13 10.0
2019-Dec-12 09:45 325 8 gusting 14 9.4
2019-Dec-12 09:30 344 6 gusting 14 9.4
2019-Dec-12 09:15 302 6 gusting 15 9.4
2019-Dec-12 09:00 273 5 gusting 16 8.9
2019-Dec-12 08:45 327 10 gusting 16 8.9
2019-Dec-12 08:30 307 6 gusting 19 8.9
2019-Dec-12 08:19 302 4 gusting 13 8.3
2019-Dec-12 08:01 321 6 gusting 13 8.3
2019-Dec-12 07:47 326 3 gusting 10 7.8
2019-Dec-12 07:31 313 4 gusting 13 7.8
2019-Dec-12 07:18 284 2 gusting 6 7.8
2019-Dec-12 07:01 336 1 gusting 6 7.8
2019-Dec-12 06:47 218 2 gusting 8 7.8
2019-Dec-12 06:31 209 5 gusting 11 7.8
2019-Dec-12 06:15 279 4 gusting 10 7.8
2019-Dec-12 06:01 278 4 gusting 10 8.3
2019-Dec-12 05:46 284 5 gusting 16 8.3
2019-Dec-12 05:31 206 4 gusting 13 8.3
2019-Dec-12 05:18 302 2 gusting 10 8.3
2019-Dec-12 05:02 300 6 gusting 13 8.3
2019-Dec-12 04:48 282 3 gusting 13 8.3
2019-Dec-12 04:32 285 2 gusting 13 8.3
2019-Dec-12 04:17 250 2 gusting 10 8.3
2019-Dec-12 04:02 175 3 gusting 13 8.9
2019-Dec-12 03:47 338 4 gusting 9 8.3
2019-Dec-12 03:31 326 4 gusting 8 8.9
2019-Dec-12 03:16 327 8.9
2019-Dec-12 03:01 325 2 gusting 11 8.9
2019-Dec-12 02:46 351 7 gusting 18 9.4
2019-Dec-12 02:31 270 5 gusting 10 8.9
2019-Dec-12 02:16 308 6 gusting 14 9.4
2019-Dec-12 02:01 227 5 gusting 16 9.4
2019-Dec-12 01:46 267 3 gusting 22 9.4
2019-Dec-12 01:31 234 4 gusting 19 9.4
2019-Dec-12 01:16 231 3 gusting 15 9.4
2019-Dec-12 01:04 274 4 gusting 17 10.0
2019-Dec-12 00:31 016 5 gusting 21 10.0
2019-Dec-12 00:15 244 7 gusting 19 10.0
2019-Dec-12 00:01 292 12 gusting 29 10.6
2019-Dec-11 23:45 336 1 gusting 13 10.0
2019-Dec-11 23:30 300 7 gusting 13 10.6
2019-Dec-11 23:15 278 6 gusting 19 10.6
2019-Dec-11 23:00 327 3 gusting 11 10.6
2019-Dec-11 22:45 335 3 gusting 13 10.6
2019-Dec-11 22:30 064 3 gusting 12 10.0
2019-Dec-11 22:15 299 6 gusting 15 10.0
2019-Dec-11 22:00 291 5 gusting 20 10.0
2019-Dec-11 21:45 261 10 gusting 20 10.6
2019-Dec-11 21:30 279 5 gusting 17 10.0
2019-Dec-11 21:15 267 7 gusting 20 10.0
2019-Dec-11 21:00 319 5 gusting 13 10.0
2019-Dec-11 20:45 268 6 gusting 13 10.0
2019-Dec-11 20:30 294 5 gusting 18 10.0
2019-Dec-11 20:15 319 6 gusting 18 10.6
2019-Dec-11 20:00 298 6 gusting 16 11.1
2019-Dec-11 19:45 252 4 gusting 12 11.1
2019-Dec-11 19:33 022 4 gusting 15 11.1
2019-Dec-11 19:17 305 4 gusting 12 10.6
2019-Dec-11 19:02 322 4 gusting 17 10.0
2019-Dec-11 18:46 306 7 gusting 18 10.0
2019-Dec-11 18:32 329 9 gusting 16 10.0
2019-Dec-11 18:17 299 8 gusting 15 10.0
2019-Dec-11 18:01 313 10 gusting 17 10.6
2019-Dec-11 17:48 277 8 gusting 15 11.1
2019-Dec-11 17:31 331 5 gusting 13 11.1
2019-Dec-11 17:16 321 4 gusting 11 11.1
2019-Dec-11 17:01 319 3 gusting 10 11.1
2019-Dec-11 16:46 311 3 gusting 8 11.1
2019-Dec-11 16:31 306 4 gusting 11 11.7
2019-Dec-11 16:17 342 4 gusting 12 11.1
2019-Dec-11 16:01 284 11.7
2019-Dec-11 15:46 295 11.1
2019-Dec-11 15:31 300 11.7
2019-Dec-11 15:15 291 11.7
2019-Dec-11 15:01 312 1 gusting 5 12.2
2019-Dec-11 14:47 327 2 gusting 5 12.2
2019-Dec-11 14:32 311 12.2
2019-Dec-11 14:16 253 0 gusting 2 12.2
2019-Dec-11 14:01 219 0 gusting 3 12.2
2019-Dec-11 13:46 270 0 gusting 6 12.2
2019-Dec-11 13:31 223 12.8
2019-Dec-11 13:16 233 12.8
2019-Dec-11 13:01 238 0 gusting 4 12.8
2019-Dec-11 12:45 266 13.3
2019-Dec-11 12:30 224 1 gusting 3 13.9
2019-Dec-11 12:15 277 0 gusting 4 13.3
2019-Dec-11 12:00 224 2 gusting 5 13.3
2019-Dec-11 11:45 224 0 gusting 4 13.3
2019-Dec-11 11:30 241 0 gusting 3 13.3
2019-Dec-11 11:15 237 13.3
2019-Dec-11 11:02 237 12.8
2019-Dec-11 10:48 233 12.8
2019-Dec-11 10:32 314 12.8
2019-Dec-11 10:18 314 12.8
2019-Dec-11 10:02 314 12.2
2019-Dec-11 09:31 316 10.6
2019-Dec-11 09:16 316 10.0
2019-Dec-11 09:02 316 9.4
2019-Dec-11 08:47 316 8.3
2019-Dec-11 08:31 316 7.8
2019-Dec-11 08:15 316 7.8
2019-Dec-11 08:00 316 6.7
2019-Dec-11 07:45 316 6.1
2019-Dec-11 07:30 316 5.6
2019-Dec-11 07:15 316 5.0
2019-Dec-11 07:00 316 5.0
2019-Dec-11 06:50 316 5.0
2019-Dec-11 06:35 316 4.4
2019-Dec-11 06:16 316 4.4
2019-Dec-11 06:02 316 4.4
2019-Dec-11 05:50 316 4.4
2019-Dec-11 05:33 316 4.4
2019-Dec-11 05:18 316 4.4
2019-Dec-11 05:03 316 4.4
2019-Dec-11 04:46 316 4.4
2019-Dec-11 04:33 316 5.0
2019-Dec-11 04:18 316 5.0
2019-Dec-11 04:03 316 5.0
2019-Dec-11 03:47 316 5.0
2019-Dec-11 03:33 316 5.0
2019-Dec-11 03:17 316 5.0
2019-Dec-11 03:02 316 5.0
2019-Dec-11 02:46 316 5.0
2019-Dec-11 02:32 316 5.6
2019-Dec-11 02:17 316 5.6
2019-Dec-11 02:01 316 5.0